Torna al catalogo

STARLINK-36586

AttivoComunicazioniSSO
NORAD 67548·PAYLOAD·🇺🇸 United States

Lanciato Jan 22, 2026 da Vandenberg Space Force Base

Loading…

Prossimi Passaggi (prossime 24 ore)

TLE

AggiornatoSource: CelesTrak SupGP

Epoca: Sep 15, 2026, 02:46 UTC

1 67548C 26014S   26258.11576389  .00083028  00000+0  25767-2 0  2583
2 67548  97.2847 143.6209 0001713  96.1677  30.7637 15.33404946    18

Traccia STARLINK-36586 in tempo reale con AllMySat

Download on the App Store